time_stamp(utc),avg(mph),gust(mph),direction(deg),12m_air_temp(f),sonic_u(cm/s),sonic_v(cm/s),sonic_w(cm/s),pressure,2m_air_temp(f),pyranometer(W/m^2)
"2019-06-05 00:00:42+00",9.5,11.5,,68.2,-408,-152,23,1017.13,68,0
"2019-06-05 00:05:42+00",10.4,11.4,,68,-452,-169,12,1017.17,67.6,0
"2019-06-05 00:10:42+00",10.2,12.2,,67.9,-442,-210,17,1017.18,67.3,0
"2019-06-05 00:15:42+00",10.7,11.7,,67.8,-424,-241,19,1017.06,67,0
"2019-06-05 00:20:42+00",9.9,11.9,,68,-431,-179,19,1017.1,66.8,0
"2019-06-05 00:25:42+00",10.3,11.3,,67.8,-448,-176,17,1017.16,66.6,0
"2019-06-05 00:30:42+00",9.1,10.1,,67.6,-381,-192,12,1017.14,66.4,0
"2019-06-05 00:35:42+00",9.5,10.5,,67.5,-351,-224,16,1017.18,66.2,0
"2019-06-05 00:40:42+00",10.5,11.5,,67.5,-379,-257,16,1017.02,66,0
"2019-06-05 00:45:42+00",12.1,14.1,,66.4,-305,-454,5,1017.23,65.7,0
"2019-06-05 00:50:42+00",12.1,13.1,,65.5,-296,-447,6,1017.14,65.2,0
"2019-06-05 00:55:42+00",11.6,12.6,,65.4,-287,-430,6,1017.25,65,0
"2019-06-05 01:00:42+00",14.5,16.5,,65.1,-364,-539,4,1017.34,64.7,0
"2019-06-05 01:05:42+00",12.2,13.2,,65.1,-293,-459,6,1017.23,64.6,0
"2019-06-05 01:10:42+00",13.7,15.7,,65.2,-361,-506,7,1017.23,64.6,0
"2019-06-05 01:15:42+00",12.0,13.0,,65,-214,-476,-4,1017.25,64.5,0
"2019-06-05 01:20:42+00",13.9,14.9,,64.9,-298,-533,-1,1017.25,64.4,0
"2019-06-05 01:25:42+00",13.9,14.9,,64.9,-327,-526,0,1017.3,64.4,0
"2019-06-05 01:30:42+00",13.2,16.2,,64.8,-266,-511,5,1017.39,64.3,0
"2019-06-05 01:35:42+00",12.9,14.9,,64.8,-287,-491,4,1017.34,64.3,0
"2019-06-05 01:40:42+00",13.0,16.0,,64.7,-278,-502,8,1017.38,64.3,0
"2019-06-05 01:45:42+00",15.8,17.8,,64.8,-323,-607,-13,1017.4,64.3,0
"2019-06-05 01:50:42+00",15.2,17.2,,64.7,-296,-591,-3,1017.3,64.3,0
"2019-06-05 01:55:42+00",15.2,17.2,,64.7,-311,-586,6,1017.26,64.3,0
"2019-06-05 02:00:42+00",15.2,17.2,,64.8,-317,-584,6,1017.29,64.3,0
"2019-06-05 02:05:42+00",14.3,16.3,,64.8,-301,-554,18,1017.45,64.4,0
"2019-06-05 02:10:42+00",14.2,16.2,,64.7,-298,-545,8,1017.4,64.4,0
"2019-06-05 02:15:42+00",16.3,19.3,,64.7,-310,-641,7,1017.31,64.3,0
"2019-06-05 02:20:42+00",17.5,20.5,,64.8,-360,-670,0,1017.26,64.4,0
"2019-06-05 02:25:42+00",15.1,19.1,,64.8,-309,-586,17,1017.27,64.4,0
"2019-06-05 02:30:42+00",16.2,20.2,,64.8,-273,-642,-2,1017.29,64.4,0
"2019-06-05 02:35:42+00",16.1,18.1,,64.8,-284,-633,-8,1017.14,64.4,0
"2019-06-05 02:40:42+00",12.2,15.2,,64.6,-151,-488,11,1017.15,64.3,0
"2019-06-05 02:45:42+00",9.6,12.6,,64.6,-93,-383,3,1017.07,64.2,0
"2019-06-05 02:50:42+00",10.7,12.7,,64.5,-98,-439,-10,1017.03,64.1,0
"2019-06-05 02:55:42+00",10.4,14.4,,64.4,-110,-429,-6,1017.06,64,0
"2019-06-05 03:00:42+00",9.6,14.6,,64.4,-130,-383,17,1016.96,64,0
"2019-06-05 03:05:42+00",12.1,16.1,,64.4,-137,-495,-9,1016.91,64,0
"2019-06-05 03:10:42+00",11.6,15.6,,64.4,-141,-479,6,1016.9,64,0
"2019-06-05 03:15:42+00",10.0,15.0,,64.4,-119,-410,13,1016.77,64,0
"2019-06-05 03:20:42+00",11.0,14.0,,64.5,-124,-452,5,1016.76,64,0
"2019-06-05 03:25:42+00",10.6,12.6,,64.5,-152,-431,11,1016.68,64,0
"2019-06-05 03:30:42+00",10.8,13.8,,64.5,-139,-435,12,1016.7,64,0
"2019-06-05 03:35:42+00",10.4,13.4,,64.5,-116,-427,6,1016.66,64,0
"2019-06-05 03:40:42+00",11.5,13.5,,64.5,-154,-470,4,1016.68,64,0
"2019-06-05 03:45:42+00",9.0,11.0,,64.4,-102,-380,-3,1016.63,64,0
"2019-06-05 03:50:42+00",9.1,12.1,,64.4,-114,-363,2,1016.63,64,0
"2019-06-05 03:55:42+00",9.2,13.2,,64.4,-101,-377,1,1016.65,64,0
"2019-06-05 04:00:42+00",9.4,14.4,,64.5,-120,-384,5,1016.64,64,0
"2019-06-05 04:05:42+00",12.1,15.1,,64.6,-183,-490,10,1016.69,64,0
"2019-06-05 04:10:42+00",13.4,14.4,,64.8,-209,-542,-9,1016.75,64.2,0
"2019-06-05 04:15:42+00",11.1,16.1,,64.8,-169,-450,1,1016.81,64.3,0
"2019-06-05 04:20:42+00",13.7,15.7,,64.9,-221,-542,-12,1016.73,64.4,0
"2019-06-05 04:25:42+00",13.4,15.4,,65.1,-207,-537,-8,1016.71,64.5,0
"2019-06-05 04:30:42+00",12.2,15.2,,65,-157,-498,-11,1016.51,64.5,0
"2019-06-05 04:35:42+00",13.1,16.1,,65,-178,-549,-3,1016.51,64.5,0
"2019-06-05 04:40:42+00",12.6,15.6,,65.2,-170,-508,1,1016.49,64.6,0
"2019-06-05 04:45:42+00",14.4,17.4,,65.2,-235,-583,-11,1016.49,64.7,0
"2019-06-05 04:50:42+00",12.3,14.3,,65.3,-180,-494,-11,1016.37,64.7,0
"2019-06-05 04:55:42+00",13.9,17.9,,65.4,-275,-546,3,1016.3,64.8,0
"2019-06-05 05:00:42+00",16.3,20.3,,65.9,-416,-611,8,1016.41,65,0
"2019-06-05 05:05:42+00",19.2,22.2,,65.9,-500,-700,-13,1016.19,65.2,0
"2019-06-05 05:10:42+00",18.8,21.8,,65.9,-538,-666,7,1016.23,65.3,0
"2019-06-05 05:15:42+00",16.2,20.2,,65.9,-477,-572,30,1016.22,65.3,0
"2019-06-05 05:20:42+00",18.8,22.8,,66,-560,-655,24,1016.19,65.3,0
"2019-06-05 05:25:42+00",16.5,19.5,,65.9,-494,-558,24,1016.19,65.3,0
"2019-06-05 05:30:42+00",18.2,19.2,,66,-533,-645,6,1016.1,65.3,0
"2019-06-05 05:35:42+00",18.4,20.4,,66,-542,-632,4,1016.11,65.3,0
"2019-06-05 05:40:42+00",16.8,19.8,,65.9,-469,-593,-4,1016.04,65.2,0
"2019-06-05 05:45:42+00",15.4,17.4,,65.9,-430,-552,11,1016.05,65.2,0
"2019-06-05 05:50:42+00",15.6,17.6,,65.7,-415,-574,6,1015.99,65.1,0
"2019-06-05 05:55:42+00",15.9,17.9,,65.7,-453,-567,0,1015.89,65,0
"2019-06-05 06:00:42+00",15.8,17.8,,65.6,-457,-550,6,1015.94,64.9,0
"2019-06-05 06:05:42+00",15.4,16.4,,65.7,-450,-538,5,1015.8,64.9,0
"2019-06-05 06:10:42+00",13.9,15.9,,65.5,-382,-509,12,1015.74,64.8,0
"2019-06-05 06:15:42+00",14.9,17.9,,65.6,-408,-547,7,1015.75,64.8,0
"2019-06-05 06:20:42+00",17.0,19.0,,65.6,-439,-627,-2,1015.68,64.9,0
"2019-06-05 06:25:42+00",16.8,20.8,,65.7,-479,-606,9,1015.77,64.9,0
"2019-06-05 06:30:42+00",16.4,18.4,,65.7,-493,-563,7,1015.83,65,0
"2019-06-05 06:35:42+00",14.3,17.3,,65.6,-386,-528,6,1015.7,65,0
"2019-06-05 06:40:42+00",15.4,17.4,,65.7,-429,-550,2,1015.52,65,0
"2019-06-05 06:45:42+00",14.1,16.1,,65.8,-385,-512,10,1015.68,65.2,0
"2019-06-05 06:50:42+00",14.5,15.5,,65.8,-410,-516,7,1015.6,65.2,0
"2019-06-05 06:55:42+00",15.8,16.8,,65.9,-441,-571,-1,1015.5,65.3,0
"2019-06-05 07:00:42+00",16.3,18.3,,66,-431,-598,-1,1015.53,65.3,0
"2019-06-05 07:05:42+00",15.8,16.8,,66.1,-472,-527,8,1015.61,65.4,0
"2019-06-05 07:10:42+00",16.0,17.0,,66,-412,-584,-1,1015.48,65.5,0
"2019-06-05 07:15:42+00",16.3,17.3,,66,-404,-609,13,1015.27,65.5,0
"2019-06-05 07:20:42+00",15.3,18.3,,65.9,-369,-579,8,1015.22,65.5,0
"2019-06-05 07:25:42+00",16.4,20.4,,65.9,-442,-599,19,1015.29,65.4,0
"2019-06-05 07:30:42+00",16.4,18.4,,65.9,-451,-585,10,1015.24,65.4,0
"2019-06-05 07:35:42+00",14.3,17.3,,65.8,-389,-523,15,1015.15,65.4,0
"2019-06-05 07:40:42+00",13.5,16.5,,65.9,-370,-496,26,1015.15,65.4,0
"2019-06-05 07:45:42+00",14.1,18.1,,65.8,-395,-507,28,1015.09,65.3,0
"2019-06-05 07:50:42+00",15.5,18.5,,65.8,-447,-559,18,1015,65.2,0
"2019-06-05 07:55:42+00",15.7,18.7,,65.9,-486,-516,21,1015.02,65.3,0
"2019-06-05 08:00:42+00",14.6,17.6,,65.9,-462,-468,11,1015.07,65.2,0
"2019-06-05 08:05:42+00",16.2,19.2,,65.9,-502,-520,-3,1015.09,65.2,0
"2019-06-05 08:10:42+00",15.2,18.2,,65.9,-457,-528,11,1015.03,65.3,0
"2019-06-05 08:15:42+00",14.4,16.4,,65.7,-390,-518,-2,1014.97,65.3,0
"2019-06-05 08:20:42+00",15.2,19.2,,65.7,-439,-537,17,1014.91,65.2,0
"2019-06-05 08:25:42+00",15.7,17.7,,65.7,-438,-568,5,1014.96,65.2,0
"2019-06-05 08:30:42+00",16.3,18.3,,65.7,-418,-594,7,1014.88,65.2,0
"2019-06-05 08:35:42+00",14.4,17.4,,65.6,-394,-523,24,1014.76,65.1,0
"2019-06-05 08:40:42+00",14.6,17.6,,65.7,-415,-521,14,1014.65,65.1,0
"2019-06-05 08:45:42+00",17.0,19.0,,65.7,-497,-600,10,1014.62,65.1,0
"2019-06-05 08:50:42+00",15.4,18.4,,65.7,-412,-563,10,1014.55,65.2,0
"2019-06-05 08:55:42+00",16.4,19.4,,65.8,-420,-607,6,1014.53,65.2,0
"2019-06-05 09:00:42+00",17.3,20.3,,65.9,-458,-633,4,1014.62,65.3,0
"2019-06-05 09:05:42+00",16.8,18.8,,66,-471,-607,13,1014.62,65.4,0
"2019-06-05 09:10:42+00",16.8,18.8,,65.9,-485,-595,-2,1014.66,65.4,0
"2019-06-05 09:15:42+00",17.3,19.3,,65.9,-504,-603,7,1014.61,65.3,0
"2019-06-05 09:20:42+00",15.4,17.4,,65.9,-454,-532,15,1014.58,65.4,0
"2019-06-05 09:25:42+00",15.9,18.9,,65.8,-459,-569,2,1014.64,65.3,0
"2019-06-05 09:30:42+00",16.0,19.0,,65.8,-471,-560,14,1014.64,65.3,0
"2019-06-05 09:35:42+00",15.8,18.8,,65.8,-460,-561,17,1014.74,65.3,0
"2019-06-05 09:40:42+00",15.4,18.4,,65.7,-442,-547,8,1014.63,65.3,0
"2019-06-05 09:45:42+00",16.7,19.7,,65.8,-476,-601,5,1014.52,65.2,0
"2019-06-05 09:50:42+00",18.5,20.5,,65.7,-518,-663,-6,1014.51,65.2,0
"2019-06-05 09:55:42+00",17.8,21.8,,65.8,-504,-641,19,1014.52,65.2,0
"2019-06-05 10:00:42+00",16.0,19.0,,65.8,-445,-579,15,1014.38,65.3,0
"2019-06-05 10:05:42+00",15.4,18.4,,65.7,-406,-573,14,1014.33,65.2,0
"2019-06-05 10:10:42+00",16.0,19.0,,65.7,-422,-590,8,1014.42,65.2,0
"2019-06-05 10:15:42+00",15.5,18.5,,65.7,-373,-590,8,1014.41,65.2,0
"2019-06-05 10:20:42+00",16.6,19.6,,65.7,-423,-622,2,1014.37,65.2,0
"2019-06-05 10:25:42+00",18.1,21.1,,65.9,-429,-682,-16,1014.31,65.4,12.1
"2019-06-05 10:30:42+00",17.0,19.0,,66,-365,-654,4,1014.17,65.6,19.5
"2019-06-05 10:35:42+00",16.7,20.7,,66.1,-367,-640,-13,1014.2,65.8,28
"2019-06-05 10:40:42+00",15.0,19.0,,66.2,-367,-575,13,1014.18,66,34.4
"2019-06-05 10:45:42+00",14.3,16.3,,66.4,-345,-539,8,1014.18,66.3,41.2
"2019-06-05 10:50:42+00",15.9,19.9,,66.6,-416,-587,6,1014.2,66.5,48.3
"2019-06-05 10:55:42+00",14.6,18.6,,66.8,-326,-555,0,1014.18,66.8,58.8
"2019-06-05 11:00:42+00",14.3,18.3,,66.8,-331,-547,9,1014.12,66.9,66.5
"2019-06-05 11:05:42+00",15.2,17.2,,66.8,-329,-579,-4,1014.15,67,77.6
"2019-06-05 11:10:42+00",18.0,20.0,,67,-391,-683,-13,1013.98,67.2,88.5
"2019-06-05 11:15:42+00",17.5,20.5,,67.1,-415,-657,-11,1013.95,67.4,96.3
"2019-06-05 11:20:42+00",17.4,21.4,,67.3,-428,-652,11,1013.92,67.6,105.8
"2019-06-05 11:25:42+00",17.3,19.3,,67.5,-386,-654,-7,1013.93,67.8,112.5
"2019-06-05 11:30:42+00",18.5,21.5,,67.7,-402,-707,-21,1013.92,68.1,121.4
"2019-06-05 11:35:42+00",17.9,19.9,,67.8,-422,-675,4,1013.94,68.3,129.6
"2019-06-05 11:40:42+00",15.4,18.4,,67.9,-376,-585,21,1014.02,68.5,138.1
"2019-06-05 11:45:42+00",17.1,20.1,,68.1,-441,-630,13,1014.1,68.6,147.6
"2019-06-05 11:50:42+00",20.0,22.0,,68.4,-520,-738,4,1014.08,69,154.8
"2019-06-05 11:55:42+00",22.3,25.3,,68.6,-674,-751,14,1013.98,69.2,159.8
"2019-06-05 12:00:42+00",18.4,20.4,,68.6,-539,-648,19,1014.04,69.4,169.2
"2019-06-05 12:05:42+00",19.3,22.3,,68.6,-534,-685,5,1013.94,69.4,180
"2019-06-05 12:10:42+00",20.3,22.3,,68.6,-580,-717,-7,1013.98,69.5,188
"2019-06-05 12:15:42+00",20.5,22.5,,68.6,-551,-750,-6,1013.82,69.6,195
"2019-06-05 12:20:42+00",18.0,21.0,,68.7,-506,-648,9,1013.88,69.6,194.2
"2019-06-05 12:25:42+00",19.7,22.7,,68.8,-490,-738,9,1013.85,69.7,190.7
"2019-06-05 12:30:42+00",20.9,23.9,,68.6,-582,-740,2,1013.84,69.7,189.8
"2019-06-05 12:35:42+00",21.2,23.2,,68.7,-601,-739,1,1013.88,69.7,180.5
"2019-06-05 12:40:42+00",20.0,24.0,,68.7,-598,-673,2,1013.96,69.7,184.9
"2019-06-05 12:45:42+00",16.2,18.2,,68.8,-490,-572,44,1013.92,69.8,222.1
"2019-06-05 12:50:42+00",18.5,22.5,,68.8,-589,-637,9,1013.96,69.9,220.6
"2019-06-05 12:55:42+00",20.3,23.3,,69,-646,-629,23,1013.82,70.2,248
"2019-06-05 13:00:42+00",20.6,23.6,,68.9,-643,-663,-2,1013.85,70.3,260.1
"2019-06-05 13:05:42+00",20.1,22.1,,69,-628,-670,4,1013.81,70.4,262.7
"2019-06-05 13:10:42+00",19.4,23.4,,69.2,-609,-643,26,1013.72,70.5,220
"2019-06-05 13:15:42+00",15.5,17.5,,69.3,-463,-564,43,1013.63,70.4,194.3
"2019-06-05 13:20:42+00",16.4,19.4,,69.4,-492,-570,30,1013.64,70.5,248.2
"2019-06-05 13:25:42+00",17.5,20.5,,69.4,-520,-612,9,1013.67,70.7,224.3
"2019-06-05 13:30:42+00",14.9,17.9,,69.5,-462,-503,27,1013.57,70.7,225.5
"2019-06-05 13:35:42+00",14.4,16.4,,69.7,-419,-518,27,1013.51,71,301.9
"2019-06-05 13:40:42+00",16.3,17.3,,69.9,-474,-570,19,1013.39,71.5,319.4
"2019-06-05 13:45:42+00",15.9,18.9,,70,-467,-547,11,1013.35,71.7,243.7
"2019-06-05 13:50:42+00",16.5,18.5,,69.9,-523,-529,-6,1013.27,71.5,185.4
"2019-06-05 13:55:42+00",18.2,21.2,,70,-585,-546,1,1013.36,71.5,315.9
"2019-06-05 14:00:42+00",17.6,20.6,,70.2,-547,-584,6,1013.25,71.9,341
"2019-06-05 14:05:42+00",14.7,16.7,,70.4,-476,-439,21,1013.18,72.2,340.2
"2019-06-05 14:10:42+00",15.7,16.7,,70.6,-473,-536,5,1012.98,72.6,354.6
"2019-06-05 14:15:42+00",15.2,18.2,,70.8,-474,-507,5,1013.07,72.8,363.8
"2019-06-05 14:20:42+00",16.7,18.7,,71.1,-486,-581,-8,1013.1,73,373.8
"2019-06-05 14:25:42+00",16.3,19.3,,71.6,-482,-563,11,1013.04,73.5,405.6
"2019-06-05 14:30:42+00",15.5,17.5,,71.6,-418,-568,-1,1013.1,73.7,381.6
"2019-06-05 14:35:42+00",16.1,18.1,,71.8,-426,-580,23,1013.09,73.8,380.6
"2019-06-05 14:40:42+00",14.1,16.1,,71.7,-387,-510,12,1013.03,73.8,399.9
"2019-06-05 14:45:42+00",13.0,17.0,,71.8,-375,-488,46,1012.98,73.8,381.3
"2019-06-05 14:50:42+00",14.1,16.1,,71.8,-400,-497,33,1012.96,74,413.8
"2019-06-05 14:55:42+00",16.1,19.1,,71.8,-404,-596,4,1012.81,74,397.5
"2019-06-05 15:00:42+00",13.7,15.7,,72.3,-344,-523,20,1012.74,74.2,432.5
"2019-06-05 15:05:42+00",15.9,17.9,,72.7,-335,-607,-3,1012.71,74.5,425.7
"2019-06-05 15:10:42+00",17.6,19.6,,72.7,-400,-666,-11,1012.71,74.5,444.9
"2019-06-05 15:15:42+00",16.4,18.4,,72.9,-395,-614,5,1012.51,74.7,456.8
"2019-06-05 15:20:42+00",15.0,17.0,,73.1,-298,-592,5,1012.42,75,470.2
"2019-06-05 15:25:42+00",15.5,20.5,,73.1,-269,-618,-13,1012.33,74.9,470.2
"2019-06-05 15:30:42+00",15.8,17.8,,73.1,-278,-629,-20,1012.29,74.7,474
"2019-06-05 15:35:42+00",13.0,16.0,,73.4,-236,-515,15,1012.33,75.1,475.6
"2019-06-05 15:40:42+00",16.8,19.8,,73.4,-344,-644,-18,1012.26,75.3,478.2
"2019-06-05 15:45:42+00",13.6,17.6,,73.6,-236,-540,16,1012.35,75.4,471.7
"2019-06-05 15:50:42+00",11.9,14.9,,73.7,-179,-490,7,1012.33,75.6,466.9
"2019-06-05 15:55:42+00",12.7,16.7,,73.3,-186,-529,3,1012.34,75.3,476
"2019-06-05 16:00:42+00",14.0,18.0,,72.9,-213,-582,-4,1012.29,74.8,480.2
"2019-06-05 16:05:42+00",13.5,17.5,,73.2,-164,-556,25,1012.26,75.1,466.7
"2019-06-05 16:10:42+00",16.4,20.4,,73.5,-262,-656,-6,1012.14,75.4,503.7
"2019-06-05 16:15:42+00",17.6,20.6,,73.1,-272,-709,-12,1012.13,75.1,489.4
"2019-06-05 16:20:42+00",14.2,19.2,,73.8,-209,-579,14,1012.21,75.6,475.1
"2019-06-05 16:25:42+00",16.1,19.1,,73.7,-305,-636,2,1012,75.6,480.3
"2019-06-05 16:30:42+00",15.8,19.8,,73.4,-250,-630,8,1012.01,75.3,485.4
"2019-06-05 16:35:42+00",19.2,21.2,,73,-343,-754,-17,1011.97,74.9,478.8
"2019-06-05 16:40:42+00",18.9,21.9,,73.1,-394,-730,-8,1011.93,74.9,514.7
"2019-06-05 16:45:42+00",18.9,22.9,,73.3,-287,-757,-9,1011.86,75.1,388.6
"2019-06-05 16:50:42+00",19.4,22.4,,73.1,-341,-767,-17,1011.88,75,460.7
"2019-06-05 16:55:42+00",15.4,18.4,,73.1,-236,-626,11,1011.79,75,438.6
"2019-06-05 17:00:42+00",19.1,21.1,,72.8,-365,-739,-21,1011.78,74.7,355.1
"2019-06-05 17:05:42+00",16.3,19.3,,73.4,-262,-656,-10,1011.67,74.8,238.3
"2019-06-05 17:10:42+00",19.1,21.1,,73.3,-293,-769,-24,1011.61,74.7,354
"2019-06-05 17:15:42+00",18.8,21.8,,73.7,-293,-750,-18,1011.52,75,345.8
"2019-06-05 17:20:42+00",18.2,21.2,,73.7,-342,-715,-2,1011.42,75.1,317
"2019-06-05 17:25:42+00",18.0,20.0,,73.5,-291,-729,-19,1011.41,75,228
"2019-06-05 17:30:42+00",17.2,19.2,,73.4,-369,-668,14,1011.47,74.8,233.2
"2019-06-05 17:35:42+00",18.6,23.6,,73.3,-381,-726,6,1011.35,74.8,248.9
"2019-06-05 17:40:42+00",17.0,22.0,,73.6,-256,-691,1,1011.29,74.7,197.6
"2019-06-05 17:45:42+00",16.3,20.3,,73.7,-321,-636,4,1011.23,74.7,189.8
"2019-06-05 17:50:42+00",16.3,22.3,,73.3,-258,-655,12,1011.29,74.5,194
"2019-06-05 17:55:42+00",16.6,19.6,,73.5,-260,-678,15,1011.16,74.5,198.3
"2019-06-05 18:00:42+00",13.9,16.9,,73.9,-237,-559,16,1011.11,74.9,245.1
"2019-06-05 18:05:42+00",16.5,19.5,,74,-220,-673,-7,1011.12,75.2,250.9
"2019-06-05 18:10:42+00",14.9,18.9,,74.1,-199,-611,-2,1010.98,75.4,368.8
"2019-06-05 18:15:42+00",16.1,19.1,,74.1,-280,-647,4,1010.96,75.4,223.9
"2019-06-05 18:20:42+00",16.9,20.9,,74.1,-246,-694,-23,1010.88,75.5,560.6
"2019-06-05 18:25:42+00",17.2,23.2,,73.8,-232,-701,11,1010.69,75.2,250.5
"2019-06-05 18:30:42+00",17.8,22.8,,73.3,-276,-722,-3,1010.65,74.5,130.2
"2019-06-05 18:35:42+00",18.9,21.9,,72.7,-374,-737,-13,1010.68,73.9,201.2
"2019-06-05 18:40:42+00",20.0,24.0,,73,-354,-793,-10,1010.68,73.9,213.7
"2019-06-05 18:45:42+00",19.6,24.6,,72.6,-394,-763,-1,1010.76,73.7,146
"2019-06-05 18:50:42+00",20.2,24.2,,72.7,-455,-775,6,1010.79,73.6,134.8
"2019-06-05 18:55:42+00",21.2,23.2,,72.5,-543,-785,-6,1010.72,73.4,111.5
"2019-06-05 19:00:42+00",21.9,24.9,,72.7,-578,-809,17,1010.67,73.4,113.9
"2019-06-05 19:05:42+00",19.7,23.7,,73.1,-535,-729,43,1010.55,73.7,127.5
"2019-06-05 19:10:42+00",20.4,25.4,,73.4,-504,-772,24,1010.47,74.1,163.1
"2019-06-05 19:15:42+00",18.1,22.1,,73.4,-376,-696,-10,1010.36,74.3,158.9
"2019-06-05 19:20:42+00",19.7,23.7,,73.2,-386,-780,-13,1010.31,74.1,200.9
"2019-06-05 19:25:42+00",18.5,20.5,,73.4,-412,-706,4,1010.2,74.3,167.2
"2019-06-05 19:30:42+00",19.5,23.5,,73.6,-400,-750,-11,1010.18,74.4,139.9
"2019-06-05 19:35:42+00",22.3,25.3,,74,-521,-845,-1,1010.13,74.6,145.6
"2019-06-05 19:40:42+00",20.1,23.1,,73.9,-445,-764,2,1010.01,74.7,164.1
"2019-06-05 19:45:42+00",24.3,28.3,,73.5,-486,-938,-14,1010,74.3,110.6
"2019-06-05 19:50:42+00",23.9,26.9,,73,-511,-904,-28,1009.89,73.7,102.5
"2019-06-05 19:55:42+00",24.2,27.2,,72.7,-514,-920,-19,1009.99,73.5,117.6
"2019-06-05 20:00:42+00",21.0,26.0,,72.4,-422,-815,12,1009.93,73.2,93.2
"2019-06-05 20:05:42+00",23.0,27.0,,71.9,-499,-878,9,1010,72.7,67.6
"2019-06-05 20:10:42+00",25.4,30.4,,71.7,-659,-937,-3,1009.93,72.4,144.8
"2019-06-05 20:15:42+00",23.4,26.4,,71.7,-614,-869,7,1009.85,72.6,187.3
"2019-06-05 20:20:42+00",23.3,26.3,,71.9,-552,-882,-11,1009.78,72.8,169.3
"2019-06-05 20:25:42+00",24.3,28.3,,72.2,-591,-910,-5,1009.8,73.1,173
"2019-06-05 20:30:42+00",25.3,29.3,,72.1,-549,-966,-18,1009.65,73.1,135.3
"2019-06-05 20:35:42+00",24.2,29.2,,72.4,-564,-922,3,1009.52,73.3,155.3
"2019-06-05 20:40:42+00",20.2,26.2,,72.4,-414,-784,15,1009.56,73.4,146.5
"2019-06-05 20:45:42+00",24.0,30.0,,72.5,-463,-935,6,1009.38,73.4,111.3
"2019-06-05 20:50:42+00",24.3,27.3,,72.3,-516,-935,-10,1009.35,73.1,107.6
"2019-06-05 20:55:42+00",24.2,29.2,,72.2,-488,-938,-16,1009.28,73.1,109
"2019-06-05 21:00:42+00",24.0,29.0,,71.8,-431,-954,0,1009.23,72.6,82.4
"2019-06-05 21:05:42+00",24.1,28.1,,71.7,-483,-936,-4,1009.18,72.3,87.6
"2019-06-05 21:10:42+00",25.6,30.6,,71.6,-521,-986,-12,1009.17,72.1,65.1
"2019-06-05 21:15:42+00",23.3,27.3,,71.3,-443,-907,-16,1009.09,71.8,65.5
"2019-06-05 21:20:42+00",21.0,24.0,,71.3,-411,-817,-2,1009.16,71.8,94.3
"2019-06-05 21:25:42+00",22.1,25.1,,71.6,-547,-826,17,1009.07,72.1,95.6
"2019-06-05 21:30:42+00",18.1,21.1,,71.8,-436,-684,33,1008.97,72.3,73.8
"2019-06-05 21:35:42+00",19.7,24.7,,72,-444,-750,5,1009.03,72.4,45.8
"2019-06-05 21:40:42+00",23.8,27.8,,72,-625,-869,-8,1009.02,72.3,33.1
"2019-06-05 21:45:42+00",27.8,31.8,,71.9,-762,-1009,9,1009,72.1,29.3
"2019-06-05 21:50:42+00",26.1,29.1,,71.8,-762,-922,18,1008.98,72,31.2
"2019-06-05 21:55:42+00",27.2,29.2,,71.6,-740,-989,-16,1008.96,71.9,37.8
"2019-06-05 22:00:42+00",24.8,27.8,,71.6,-684,-898,12,1008.91,71.9,37.7
"2019-06-05 22:05:42+00",25.1,29.1,,71.5,-734,-878,7,1008.91,71.8,28.4
"2019-06-05 22:10:42+00",24.2,28.2,,71.4,-747,-801,28,1008.96,71.7,22.3
"2019-06-05 22:15:42+00",25.8,28.8,,71.5,-745,-901,-6,1008.97,71.7,42.7
"2019-06-05 22:20:42+00",24.8,27.8,,71.8,-747,-836,12,1008.84,72,77.3
"2019-06-05 22:25:42+00",20.6,22.6,,72.3,-600,-738,35,1008.77,72.4,49.9
"2019-06-05 22:30:42+00",26.9,33.9,,72,-578,-1034,-7,1008.68,72.3,17
"2019-06-05 22:35:42+00",28.9,33.9,,71.7,-754,-1064,0,1008.68,71.9,6.4
"2019-06-05 22:40:42+00",34.1,38.1,,71.5,-844,-1267,-7,1008.53,71.6,5.4
"2019-06-05 22:45:42+00",25.1,28.1,,71.1,-633,-938,30,1008.52,71.3,1.1
"2019-06-05 22:50:42+00",28.1,32.1,,70.7,-739,-1020,17,1008.51,70.7,5.4
"2019-06-05 22:55:42+00",25.9,29.9,,70.5,-724,-930,10,1008.52,70.4,0.6
"2019-06-05 23:00:42+00",21.0,24.0,,70.5,-571,-762,22,1008.52,70.5,2.5
"2019-06-05 23:05:42+00",23.9,26.9,,70.3,-691,-849,-1,1008.31,70.3,3.9
"2019-06-05 23:10:42+00",23.5,26.5,,70.6,-590,-874,-10,1008.18,70.5,3.2
"2019-06-05 23:15:42+00",20.8,24.8,,70.5,-512,-782,1,1008.17,70.5,0.1
"2019-06-05 23:20:42+00",22.1,24.1,,70.1,-562,-822,7,1008.2,70.2,0
"2019-06-05 23:25:42+00",21.5,25.5,,69.9,-549,-802,9,1008.4,69.7,0
"2019-06-05 23:30:42+00",22.7,25.7,,69.9,-486,-868,4,1008.44,69.7,0
"2019-06-05 23:35:42+00",23.3,25.3,,69.7,-531,-888,-9,1008.38,69.5,0
"2019-06-05 23:40:42+00",25.1,30.1,,69.8,-560,-965,14,1008.4,69.6,0
"2019-06-05 23:45:42+00",25.1,29.1,,69.4,-554,-955,-15,1008.26,69.3,0
"2019-06-05 23:50:42+00",21.5,24.5,,69.1,-397,-853,1,1008.38,69.1,0
"2019-06-05 23:55:42+00",19.7,26.7,,68.8,-336,-784,0,1008.44,68.8,0
